| time (UTC) | temp F | wind direction | speed MPH | gust MPH | rain 1hr in | rain 24hr in | rain mn in | humidity % | barometer mb |
| 20260509103019 | 27 | 101 | 0.0 | 0.0 | 0.00 | 0.00 | 0.00 | 98 | 1014.3 |
| 20260509101517 | 25 | 101 | 0.0 | 0.0 | 0.00 | 0.00 | 0.00 | 98 | 1014.3 |
| 20260509100051 | 24 | 101 | 0.0 | 0.0 | 0.00 | 0.00 | 0.00 | 97 | 1014.0 |
| 20260509094642 | 24 | 101 | 0.0 | 0.0 | 0.00 | 0.00 | 0.00 | 97 | 1013.9 |
| 20260509093038 | 24 | 101 | 0.0 | 0.0 | 0.00 | 0.00 | 0.00 | 97 | 1013.9 |
| 20260509091537 | 24 | 101 | 0.0 | 0.0 | 0.00 | 0.00 | 0.00 | 97 | 1013.7 |
| 20260509090036 | 25 | 101 | 0.0 | 0.0 | 0.00 | 0.00 | 0.00 | 97 | 1013.7 |
| 20260509084535 | 25 | 101 | 0.0 | 0.0 | 0.00 | 0.00 | 0.00 | 97 | 1013.6 |
| 20260509083031 | 25 | 101 | 0.0 | 0.0 | 0.00 | 0.00 | 0.00 | 97 | 1013.6 |
| 20260509081540 | 25 | 101 | 0.0 | 0.0 | 0.00 | 0.00 | 0.00 | 96 | 1013.6 |
| 20260509080029 | 25 | 101 | 0.0 | 0.0 | 0.00 | 0.00 | 0.00 | 96 | 1013.7 |
| 20260509074530 | 26 | 101 | 0.0 | 0.0 | 0.00 | 0.00 | 0.00 | 96 | 1013.7 |
| 20260509073026 | 26 | 101 | 0.0 | 0.0 | 0.00 | 0.00 | 0.00 | 96 | 1013.6 |
| 20260509071523 | 26 | 101 | 0.0 | 0.0 | 0.00 | 0.00 | 0.00 | 96 | 1013.5 |
| 20260509070022 | 27 | 101 | 0.0 | 0.0 | 0.00 | 0.00 | 0.00 | 96 | 1013.6 |
| 20260509064520 | 27 | 101 | 0.0 | 0.0 | 0.00 | 0.00 | 0.00 | 96 | 1013.4 |
| 20260509063019 | 27 | 101 | 0.0 | 0.0 | 0.00 | 0.00 | 0.00 | 96 | 1013.6 |
| 20260509061515 | 27 | 101 | 0.0 | 0.0 | 0.00 | 0.00 | 0.00 | 96 | 1013.4 |
| 20260509060014 | 28 | 101 | 0.0 | 0.0 | 0.00 | 0.00 | 0.00 | 95 | 1013.3 |
| 20260509054519 | 28 | 96 | 0.0 | 0.0 | 0.00 | 0.00 | 0.00 | 95 | 1013.2 |
| 20260509053011 | 28 | 96 | 0.0 | 0.0 | 0.00 | 0.00 | 0.00 | 95 | 1013.2 |
| 20260509051508 | 28 | 96 | 0.0 | 0.0 | 0.00 | 0.00 | 0.00 | 95 | 1013.1 |
| 20260509050008 | 29 | 83 | 0.0 | 0.0 | 0.00 | 0.00 | 0.00 | 95 | 1013.1 |
| 20260509044512 | 29 | 83 | 0.0 | 0.0 | 0.00 | 0.00 | 0.00 | 94 | 1013.1 |
| 20260509043009 | 30 | 83 | 0.0 | 0.0 | 0.00 | 0.00 | 0.00 | 94 | 1013.0 |
| 20260509041504 | 30 | 83 | 0.0 | 0.0 | 0.00 | 0.00 | 0.00 | 94 | 1013.1 |
| 20260509040002 | 30 | 108 | 0.0 | 0.0 | 0.00 | 0.00 | 0.00 | 93 | 1012.8 |
| 20260509034501 | 31 | 108 | 0.0 | 0.0 | 0.00 | 0.00 | 0.00 | 93 | 1012.7 |
| 20260509033100 | 32 | 108 | 0.0 | 0.0 | 0.00 | 0.00 | 0.00 | 92 | 1012.5 |
| 20260509031601 | 33 | 108 | 0.0 | 0.0 | 0.00 | 0.00 | 0.00 | 92 | 1012.4 |
| 20260509030053 | 33 | 108 | 0.0 | 0.0 | 0.00 | 0.00 | 0.00 | 91 | 1012.3 |
| 20260509024551 | 33 | 108 | 0.0 | 0.0 | 0.00 | 0.00 | 0.00 | 90 | 1012.1 |
| 20260509023057 | 34 | 108 | 0.0 | 0.0 | 0.00 | 0.00 | 0.00 | 90 | 1012.1 |
| 20260509021550 | 34 | 108 | 0.0 | 0.0 | 0.00 | 0.00 | 0.00 | 89 | 1012.0 |
| 20260509020050 | 34 | 94 | 0.0 | 0.0 | 0.00 | 0.00 | 0.00 | 88 | 1012.0 |
| 20260509014545 | 35 | 108 | 0.0 | 0.0 | 0.00 | 0.00 | 0.00 | 87 | 1011.7 |
| 20260509013105 | 36 | 108 | 0.0 | 0.0 | 0.00 | 0.00 | 0.00 | 85 | 1011.6 |
| 20260509011542 | 38 | 108 | 0.0 | 0.0 | 0.00 | 0.00 | 0.00 | 84 | 1011.4 |
| 20260509010040 | 38 | 82 | 0.0 | 0.0 | 0.00 | 0.00 | 0.00 | 84 | 1011.2 |
| 20260509004537 | 38 | 89 | 0.0 | 0.0 | 0.00 | 0.00 | 0.00 | 82 | 1011.0 |
| 20260509003103 | 40 | 90 | 0.0 | 0.0 | 0.00 | 0.00 | 0.00 | 80 | 1010.8 |
| 20260509001535 | 41 | 90 | 0.0 | 0.0 | 0.00 | 0.00 | 0.00 | 76 | 1010.7 |
| 20260509000034 | 42 | 90 | 0.0 | 0.0 | 0.00 | 0.00 | 0.00 | 73 | 1010.6 |
| 20260508234506 | 44 | 90 | 0.0 | 0.0 | 0.00 | 0.00 | 0.00 | 64 | 1010.5 |
| 20260508233002 | 46 | 114 | 0.0 | 0.0 | 0.00 | 0.00 | 0.00 | 56 | 1010.4 |
| 20260508231606 | 47 | 131 | 0.0 | 0.0 | 0.00 | 0.00 | 0.00 | 54 | 1010.3 |
| 20260508224608 | 48 | 108 | 0.0 | 3.0 | 0.00 | 0.00 | 0.00 | 51 | 1010.2 |
| 20260508223057 | 48 | 113 | 0.0 | 3.0 | 0.00 | 0.00 | 0.00 | 52 | 1010.1 |
| 20260508221602 | 49 | 103 | 2.0 | 15.0 | 0.00 | 0.00 | 0.00 | 49 | 1010.0 |
| 20260508220054 | 49 | 106 | 0.0 | 9.0 | 0.00 | 0.00 | 0.00 | 48 | 1009.9 |
| 20260508214553 | 50 | 105 | 0.0 | 4.0 | 0.00 | 0.00 | 0.00 | 50 | 1009.8 |
| 20260508213111 | 49 | 76 | 0.0 | 5.0 | 0.00 | 0.00 | 0.00 | 50 | 1009.9 |
| 20260508211637 | 50 | 122 | 2.0 | 9.0 | 0.00 | 0.00 | 0.00 | 48 | 1009.6 |
| 20260508210038 | 50 | 124 | 0.0 | 7.0 | 0.00 | 0.00 | 0.00 | 50 | 1009.7 |
| 20260508204539 | 49 | 103 | 0.0 | 10.0 | 0.00 | 0.00 | 0.00 | 53 | 1009.6 |
| 20260508203034 | 49 | 96 | 0.0 | 14.0 | 0.00 | 0.00 | 0.00 | 52 | 1009.4 |
| 20260508201533 | 49 | 105 | 0.0 | 9.0 | 0.00 | 0.00 | 0.00 | 51 | 1009.2 |
| 20260508200038 | 49 | 99 | 5.0 | 15.0 | 0.00 | 0.00 | 0.00 | 50 | 1009.3 |
| 20260508194531 | 49 | 102 | 0.0 | 14.0 | 0.00 | 0.00 | 0.00 | 52 | 1009.6 |
| 20260508193056 | 49 | 129 | 3.0 | 13.0 | 0.00 | 0.00 | 0.00 | 54 | 1009.5 |
| 20260508191532 | 48 | 133 | 0.0 | 4.0 | 0.00 | 0.00 | 0.00 | 54 | 1009.6 |
| 20260508190036 | 47 | 92 | 0.0 | 14.0 | 0.00 | 0.00 | 0.00 | 54 | 1009.6 |
| 20260508184529 | 47 | 92 | 0.0 | 10.0 | 0.00 | 0.00 | 0.00 | 55 | 1009.6 |
| 20260508183028 | 47 | 89 | 2.0 | 13.0 | 0.00 | 0.00 | 0.00 | 55 | 1009.6 |
| 20260508181505 | 47 | 89 | 0.0 | 7.0 | 0.00 | 0.00 | 0.00 | 55 | 1009.6 |
| 20260508180002 | 46 | 96 | 0.0 | 5.0 | 0.00 | 0.00 | 0.00 | 58 | 1009.4 |
| 20260508174550 | 46 | 122 | 0.0 | 3.0 | 0.00 | 0.00 | 0.00 | 59 | 1009.5 |
| 20260508173031 | 46 | 127 | 0.0 | 5.0 | 0.00 | 0.00 | 0.00 | 58 | 1009.6 |
| 20260508171530 | 46 | 96 | 1.0 | 9.0 | 0.00 | 0.00 | 0.00 | 55 | 1009.4 |
| 20260508170028 | 46 | 136 | 0.0 | 16.0 | 0.00 | 0.00 | 0.00 | 56 | 1009.4 |
| 20260508164535 | 47 | 75 | 5.0 | 19.0 | 0.00 | 0.00 | 0.00 | 54 | 1009.2 |
| 20260508163030 | 47 | 106 | 2.0 | 18.0 | 0.00 | 0.00 | 0.00 | 58 | 1009.3 |
| 20260508161537 | 48 | 96 | 2.0 | 15.0 | 0.00 | 0.00 | 0.00 | 57 | 1009.1 |
| 20260508160037 | 47 | 115 | 1.0 | 14.0 | 0.00 | 0.00 | 0.00 | 59 | 1009.3 |
| 20260508154518 | 46 | 113 | 5.0 | 17.0 | 0.00 | 0.00 | 0.00 | 59 | 1009.4 |
| 20260508153021 | 45 | 107 | 6.0 | 16.0 | 0.00 | 0.00 | 0.00 | 63 | 1009.5 |
| 20260508151524 | 44 | 96 | 1.0 | 11.0 | 0.00 | 0.00 | 0.00 | 70 | 1009.5 |
| 20260508150013 | 45 | 82 | 0.0 | 11.0 | 0.00 | 0.00 | 0.00 | 70 | 1009.3 |
| 20260508144510 | 45 | 109 | 3.0 | 11.0 | 0.00 | 0.00 | 0.00 | 68 | 1009.3 |
| 20260508143007 | 45 | 124 | 1.0 | 6.0 | 0.00 | 0.00 | 0.00 | 70 | 1009.3 |
| 20260508141512 | 45 | 126 | 0.0 | 11.0 | 0.00 | 0.00 | 0.00 | 71 | 1009.2 |
| 20260508141510 | 45 | 91 | 0.0 | 11.0 | 0.00 | 0.00 | 0.00 | 71 | 1009.2 |
| 20260508140001 | 45 | 113 | 0.0 | 9.0 | 0.00 | 0.00 | 0.00 | 72 | 1009.2 |
| 20260508134623 | 44 | 91 | 0.0 | 6.0 | 0.00 | 0.00 | 0.00 | 73 | 1009.2 |
| 20260508133110 | 44 | 95 | 0.0 | 2.0 | 0.00 | 0.00 | 0.00 | 76 | 1009.2 |
| 20260508131551 | 41 | 129 | 0.0 | 0.0 | 0.00 | 0.00 | 0.00 | 83 | 1009.2 |
| 20260508130042 | 40 | 292 | 0.0 | 0.0 | 0.00 | 0.00 | 0.00 | 86 | 1009.2 |
| 20260508124541 | 39 | 288 | 0.0 | 0.0 | 0.00 | 0.00 | 0.00 | 88 | 1009.2 |
| 20260508123039 | 38 | 276 | 0.0 | 0.0 | 0.00 | 0.00 | 0.00 | 92 | 1009.1 |
| 20260508121535 | 35 | 285 | 0.0 | 0.0 | 0.00 | 0.00 | 0.00 | 94 | 1009.1 |
| 20260508120029 | 34 | 273 | 0.0 | 0.0 | 0.00 | 0.00 | 0.00 | 96 | 1009.1 |
| 20260508114527 | 33 | 270 | 0.0 | 0.0 | 0.00 | 0.00 | 0.00 | 97 | 1009.0 |
| 20260508113104 | 33 | 79 | 0.0 | 0.0 | 0.00 | 0.00 | 0.00 | 98 | 1009.0 |
| 20260508111558 | 32 | 79 | 0.0 | 0.0 | 0.00 | 0.00 | 0.00 | 98 | 1008.9 |
| 20260508110020 | 30 | 79 | 0.0 | 0.0 | 0.00 | 0.00 | 0.00 | 98 | 1008.8 |
| 20260508104516 | 30 | 79 | 0.0 | 0.0 | 0.00 | 0.00 | 0.00 | 99 | 1008.7 |